Location: Béaulencourt
(50.0796°N, 2.8795°E)
Time: 00:05:51
(UTC+00:00)

Okean 1-7 - Pass Details

Date: 20 January 2026
Orbit: 566 x 588 km, 82.5° (Epoch: 18 February)

Event Time Altitude Azimuth Distance (km) Brightness Sun altitude
Exits shadow 05:01:08 11° 4° (N) 1,806 5.4 -24.5°
Maximum altitude 05:04:51 40° 74° (ENE) 853 4.2 -24.0°
Drops below altitude 10° 05:08:47 10° 145° (SE) 1,885 6.0 -23.3°
Sets 05:11:04 0° 153° (SSE) 2,783 6.8 -23.0°
